Dewpoint
43 45 46 47 48 48 40 37 28 40 42 31 30 28 27 30 26 27 24 25 24 22 24 25 20 21 25 27 30 29 26 21 22 20 24 26 26 28 32 30 29 31 32 33
44 45 47 48 49 47 37 32 32 39 41 31 27 26 25 26 25 24 22 23 24 26 24 21 20 21 22 28 32 33 32 26 21 12 17 24 25 27 33 34 32 31 30 32
44 46 47 48 48 48 39 32 30 30 33 30 27 26 24 25 27 24 25 24 25 23 24 23 14 15 18 25 30 37 32 28 25 22 21 25 29 32 37 35 31 33 32 34
45 46 47 48 48 48 39 34 32 28 25 26 27 27 25 23 23 23 23 21 25 23 21 19 17 18 22 25 28 35 32 27 27 28 29 31 34 34 35 34 34 32 33 33
45 46 47 48 48 46 36 34 30 30 28 26 25 28 23 22 24 22 18 22 24 25 19 18 16 18 20 22 26 31 33 27 27 26 33 35 34 35 35 35 35 33 32 32
45 47 48 47 48 43 36 35 33 30 25 24 23 24 23 23 27 26 25 22 24 24 24 25 25 25 26 24 25 28 32 30 26 21 29 33 30 32 34 35 35 34 31 34
46 47 47 46 48 43 38 36 33 29 22 23 23 25 26 25 25 26 27 26 23 27 31 30 29 27 26 28 29 28 32 30 28 25 28 25 35 38 38 36 35 35 34 35
46 47 46 46 48 44 38 38 33 31 25 25 26 27 27 29 30 28 27 28 29 31 31 25 23 23 25 25 31 32 32 30 27 25 26 34 34 35 35 34 34 35 34 36
46 46 46 47 46 41 37 36 37 35 29 26 28 27 27 26 27 27 28 30 30 31 25 22 21 20 20 19 19 28 29 30 28 29 26 24 32 35 36 36 33 36 35 35
46 46 46 45 44 42 37 36 37 35 31 31 29 26 27 30 29 25 27 28 25 29 24 20 22 21 23 19 21 23 22 25 26 27 27 31 34 35 37 30 33 37 36 36
46 45 45 44 43 42 37 35 37 35 32 32 33 32 28 27 26 23 27 22 26 20 20 21 24 21 23 21 23 25 23 24 25 26 23 22 32 34 34 37 37 36 37 38
45 45 44 44 43 42 39 34 37 38 33 32 34 34 34 34 30 30 30 26 28 27 25 25 25 22 25 22 19 25 22 29 27 28 27 33 36 36 37 37 36 37 38 38
45 44 44 43 43 42 37 33 34 32 31 32 33 32 35 35 35 34 28 29 31 30 29 29 28 25 25 24 25 28 28 35 32 32 32 35 38 37 36 37 37 39 39 39
44 43 42 42 42 42 38 35 37 35 32 32 32 35 35 37 35 34 34 33 33 32 30 29 27 26 28 28 28 30 34 35 34 32 32 36 36 36 37 38 39 39 40 40
44 43 43 42 42 42 39 39 39 36 31 30 31 34 35 36 36 34 33 32 30 28 28 28 27 28 30 30 29 32 36 34 32 32 35 36 37 38 39 39 39 40 40 41
44 44 44 43 41 34 33 32 38 39 37 32 29 33 34 35 36 35 34 32 31 30 28 27 28 29 32 29 29 35 38 39 39 36 38 38 39 40 39 39 40 41 41 42
43 43 43 42 41 39 32 31 35 41 37 33 30 29 33 34 35 35 34 33 32 30 30 30 30 32 33 31 30 36 39 39 40 40 40 39 39 39 41 42 42 42 42 42
43 43 43 43 42 40 35 38 41 38 34 33 30 29 30 33 33 34 34 32 33 33 31 32 32 33 35 32 36 38 39 40 40 40 41 42 43 43 43 43 42 38 37 41
42 41 40 37 35 33 34 41 38 38 35 31 28 27 26 34 34 34 33 32 32 32 33 33 32 33 33 36 36 37 40 40 40 39 40 41 42 43 43 43 41 38 35 36
40 35 30 31 35 39 35 33 33 33 32 32 29 30 29 32 32 30 31 31 30 30 32 33 30 32 33 35 37 39 41 42 41 40 39 40 41 43 43 41 41 38 37 35
34 33 33 35 37 31 30 28 28 29 29 29 29 29 28 32 27 28 29 29 28 26 31 28 27 30 32 34 37 39 42 42 41 41 40 41 42 43 43 42 41 40 38 37
34 34 34 30 27 26 25 23 27 27 25 28 28 28 30 31 31 30 30 26 27 26 31 27 25 31 31 35 36 38 41 42 40 40 40 40 41 42 44 42 41 40 39 39
34 29 25 26 24 13 17 19 24 26 28 30 30 30 31 30 31 30 27 23 24 30 27 26 31 31 32 35 36 39 41 41 42 39 40 41 40 41 43 44 42 40 40 39
30 25 16 21 21 22 20 23 26 28 30 30 31 30 31 30 30 29 23 26 27 25 17 23 32 31 33 34 36 39 40 41 41 41 40 40 41 41 42 43 44 42 38 38
29 27 21 23 24 28 29 29 29 30 31 29 28 28 29 29 28 27 25 24 22 23 21 31 32 32 30 31 35 36 37 40 41 42 41 40 41 41 41 42 41 43 43 41
31 28 26 27 28 28 28 29 28 30 29 29 29 26 26 26 27 23 20 20 21 26 27 31 33 29 27 30 33 35 34 34 35 38 41 40 41 41 40 41 42 42 41 41
29 29 30 29 29 27 26 27 27 30 26 25 26 22 22 28 25 23 24 24 28 30 32 34 32 28 28 28 29 31 30 29 31 32 34 39 41 39 39 41 40 41 41 41
Lifted_Index
15 15 14 12 11 10 9 8 7 9 8 6 4 4 5 7 7 8 7 7 7 6 6 5 5 6 8 9 9 8 8 7 5 4 4 3 3 2 2 1 1 1 1 1
15 15 14 12 10 9 9 7 7 8 8 5 4 4 5 6 7 7 7 7 7 7 6 6 6 7 9 10 9 8 8 7 4 4 4 3 3 2 2 2 1 1 1 1
15 15 13 11 10 9 8 7 6 7 6 5 5 5 5 6 7 8 8 8 8 7 7 6 7 8 9 10 9 9 8 6 4 3 3 3 2 2 2 2 1 1 1 1
15 15 13 11 10 9 8 7 6 6 5 5 5 5 5 6 7 8 8 8 8 7 7 7 7 8 9 9 9 9 8 6 4 3 3 3 2 2 2 2 2 1 2 2
14 14 13 11 10 9 8 7 6 6 5 5 5 5 5 6 7 8 8 8 8 8 7 7 8 8 9 9 9 9 7 6 4 3 3 3 2 2 2 2 2 2 3 3
14 14 13 12 10 9 8 8 7 6 5 5 5 5 6 6 7 8 9 9 9 9 9 9 9 9 9 9 9 8 7 6 4 3 2 2 2 2 2 2 3 4 4 5
13 13 12 12 10 9 9 8 8 6 5 5 5 6 6 7 8 8 9 10 10 10 10 10 9 9 9 9 9 8 7 6 4 2 2 1 2 2 2 3 3 4 4 5
12 11 11 11 10 10 9 9 8 6 5 5 6 7 7 8 8 9 10 11 12 11 11 9 8 8 9 9 9 8 6 5 3 2 1 1 2 2 3 3 3 3 4 4
10 10 10 10 10 10 9 9 8 7 6 6 7 7 8 8 8 9 10 12 13 12 11 9 8 8 9 10 10 8 6 4 3 1 1 2 2 3 3 3 3 3 3 3
10 10 10 10 10 10 9 9 9 7 7 8 9 9 8 9 9 9 10 11 12 12 11 9 9 9 11 10 9 7 5 4 2 1 1 2 3 3 3 3 3 4 3 3
10 10 10 10 10 10 10 10 10 8 8 10 12 11 11 11 11 10 10 11 11 11 11 10 11 11 11 10 8 6 4 3 2 2 2 3 4 3 3 4 4 4 4 4
10 10 10 10 11 10 10 9 10 9 9 11 13 13 13 13 13 12 11 11 11 11 11 11 11 11 10 8 7 5 4 3 3 3 3 4 4 4 4 4 4 4 4 4
11 11 11 11 11 11 10 10 10 10 9 10 12 13 14 15 14 13 12 12 11 12 11 11 10 9 8 7 6 5 5 4 4 4 4 4 4 4 4 4 4 4 4 5
12 12 11 11 11 11 11 10 11 10 9 9 11 13 14 14 14 13 12 12 12 11 11 10 9 8 7 6 5 5 5 5 4 4 4 4 3 3 4 4 4 4 4 4
12 12 12 12 12 12 11 11 11 11 9 8 10 12 13 13 13 12 12 12 11 11 10 9 8 8 7 6 5 5 5 5 4 4 4 4 3 3 3 4 4 4 4 4
12 12 12 12 12 12 10 10 11 12 11 9 9 11 13 13 12 12 11 11 11 10 9 8 8 8 7 5 4 5 5 5 5 4 4 3 3 3 3 3 3 3 3 4
12 12 12 12 12 11 10 10 11 12 11 9 9 10 12 12 12 11 11 11 11 10 9 8 8 8 7 5 4 4 5 5 5 4 3 3 2 3 3 3 3 3 3 4
12 12 12 12 11 11 10 10 11 11 10 9 8 9 10 11 11 11 11 11 10 10 9 8 8 7 6 5 5 4 4 4 4 4 3 3 2 3 3 3 3 3 4 4
12 12 11 11 11 11 11 11 11 10 10 9 8 8 9 10 11 11 11 10 10 9 9 9 8 7 6 6 5 4 4 3 3 3 3 3 3 3 3 4 4 4 4 5
12 11 10 10 11 11 11 10 10 9 9 9 9 9 9 10 11 11 11 10 10 9 9 9 8 7 6 7 6 5 4 4 3 3 3 3 3 3 4 4 4 4 5 5
11 10 9 11 11 11 9 8 7 7 8 9 9 9 10 11 11 11 11 10 9 9 8 8 7 7 7 7 6 5 5 4 4 3 3 3 3 3 4 4 4 4 5 5
10 10 10 10 10 8 6 5 6 6 7 8 9 10 11 11 11 11 11 10 9 8 8 8 8 8 8 7 6 5 5 5 5 4 3 3 3 3 3 4 4 4 4 5
10 9 8 7 6 5 4 4 5 5 7 8 9 10 10 11 11 11 10 9 8 8 8 8 8 9 9 8 7 6 6 6 6 5 5 4 3 3 3 3 4 4 4 5
7 6 5 4 4 4 4 5 5 7 8 9 10 10 10 10 10 10 9 8 8 7 7 8 9 9 9 9 8 7 7 7 6 6 6 6 5 4 4 3 4 4 4 5
5 4 3 3 5 5 6 7 7 8 9 10 10 10 9 9 9 9 8 7 7 6 7 8 9 9 9 9 9 9 8 8 8 7 7 7 6 6 5 5 5 4 4 5
5 4 4 5 5 6 7 8 8 9 10 10 9 9 8 8 8 7 7 7 6 7 8 9 9 9 9 9 9 9 10 10 10 9 8 8 7 7 6 6 6 6 6 6
4 4 5 6 6 6 7 8 9 9 9 9 9 8 7 8 7 7 7 7 7 8 9 9 9 9 9 9 9 9 10 10 10 10 9 8 7 7 7 7 8 8 8 7